Theta_e
317 316 315 316 316 316 316 317 317 316 316 316 315 315 314 314 314 314 314 314 314 314 314 314 314 314 313 313 311 310 311 313 313 314 314 314 314 314 314 314 314 315 315 315 314 314 314 314 314 313 313 312 312 312 311 311 312 312 313 313 313 313 313 314 314 314 314 315 315 316 316 317 318 318 318 317 316 316 315 315 316 316 316 316 316
318 317 315 315 316 316 316 316 316 315 315 315 315 315 315 314 314 314 313 313 313 313 313 313 313 313 313 312 310 310 311 313 313 313 314 314 314 314 314 314 314 314 314 314 314 314 314 313 312 311 311 310 310 310 310 311 312 313 313 313 312 312 313 313 314 314 314 315 315 315 316 316 316 316 316 316 316 316 316 316 316 316 316 316 316
318 317 316 315 316 316 316 315 315 314 314 314 314 315 315 314 314 314 314 314 313 313 312 312 313 313 312 311 310 310 311 312 313 313 313 313 313 313 314 314 314 314 313 313 313 313 312 312 311 310 310 310 309 310 310 311 312 312 312 311 312 312 313 313 313 313 313 314 314 315 315 315 316 316 316 316 316 316 317 317 317 317 316 317 317
317 316 315 315 316 316 316 315 314 314 313 313 314 315 315 314 314 314 314 314 314 313 312 311 311 311 311 310 309 309 310 311 312 313 313 313 313 313 313 313 313 313 313 312 312 312 311 310 310 310 309 309 309 309 310 311 311 311 311 311 312 313 313 313 313 314 314 315 315 316 316 316 317 317 317 317 317 317 317 317 317 317 317 317 317
317 316 315 315 315 315 315 314 314 314 313 314 315 315 314 314 314 314 314 314 314 312 311 310 308 308 309 309 309 309 309 311 312 312 312 312 312 312 312 312 312 312 312 311 311 311 310 310 310 309 309 309 309 309 310 311 311 311 312 312 312 312 312 312 314 315 315 316 316 317 317 317 317 317 317 317 317 317 318 317 317 318 318 317 317
317 316 315 315 315 316 315 314 314 313 313 314 314 314 314 314 313 314 314 314 313 312 311 309 307 307 308 309 309 309 310 311 311 310 310 311 311 310 310 310 310 310 310 310 310 310 310 310 310 309 309 309 309 310 311 311 311 311 311 311 310 310 311 313 314 315 315 316 316 316 317 316 316 316 317 317 317 317 317 318 318 318 319 318 318
316 316 316 316 315 316 316 315 314 314 314 314 313 313 314 313 314 314 314 314 312 311 311 309 306 306 307 308 309 309 310 310 309 309 309 310 310 310 310 310 310 310 310 310 310 311 311 310 310 310 309 309 310 310 311 311 311 311 311 310 309 309 311 313 314 314 314 314 315 315 316 316 316 317 317 318 318 318 318 319 319 319 318 319 319
316 316 316 316 315 315 316 316 315 314 314 314 314 313 313 314 314 314 313 312 311 310 311 310 307 306 306 307 308 308 309 309 308 309 309 309 310 310 310 310 310 310 310 310 310 310 310 310 310 310 309 310 310 311 311 311 310 310 310 310 309 309 310 311 311 312 313 314 316 316 317 317 318 318 319 319 319 319 320 320 319 319 318 319 319
316 316 316 316 315 315 315 315 315 314 313 312 313 314 313 314 314 313 312 311 310 309 311 311 309 307 306 306 307 308 309 308 308 309 309 309 310 310 310 309 309 309 310 310 310 310 310 310 309 309 310 310 311 311 310 310 310 310 310 308 308 308 309 311 312 313 315 316 317 317 318 319 319 320 320 320 320 319 320 320 320 319 319 320 319
316 316 316 316 315 315 316 315 314 313 312 311 312 313 314 314 313 313 312 311 310 309 310 312 310 309 307 306 306 307 308 307 307 309 309 309 309 309 309 309 309 309 309 309 309 310 309 309 309 309 310 311 311 311 311 310 310 310 309 308 307 308 311 313 315 316 317 317 317 318 319 319 320 321 321 321 321 320 320 320 320 320 320 320 319
317 317 316 316 316 315 316 315 314 313 313 312 312 313 314 313 312 313 313 312 311 310 310 312 311 310 308 306 306 307 307 306 307 309 308 308 308 308 309 309 309 309 309 309 309 309 309 308 309 310 311 311 311 311 311 310 310 310 308 307 307 310 313 315 316 317 317 318 318 319 319 320 321 321 321 322 322 320 319 319 319 321 321 321 320
318 317 317 317 317 316 315 315 314 314 314 314 313 313 313 313 312 312 313 313 311 310 310 311 312 310 309 307 306 306 306 305 306 307 308 308 308 308 308 308 308 308 308 308 308 308 308 309 309 310 311 311 311 310 310 310 310 309 308 306 308 312 314 315 317 318 318 319 320 320 321 321 322 322 321 322 321 320 320 319 320 322 322 322 321
318 318 318 318 318 317 317 317 316 315 315 316 315 314 314 314 313 312 313 313 312 311 310 311 312 311 310 308 306 306 305 305 304 305 307 308 308 308 308 308 308 307 308 308 308 308 308 309 310 311 311 311 311 310 310 310 309 308 306 307 310 312 314 316 318 318 319 320 321 321 321 321 322 322 321 321 320 320 320 320 321 323 323 322 322
318 319 319 319 319 318 318 318 317 316 316 316 316 315 314 314 313 313 314 313 312 310 310 311 313 312 310 309 308 306 306 306 305 305 307 307 308 308 308 308 308 307 308 308 308 308 308 309 310 311 311 310 310 310 309 309 307 306 306 309 311 313 315 317 318 319 320 321 321 321 321 321 322 322 321 321 321 321 320 320 321 322 322 323 323
319 319 320 319 319 319 318 318 318 318 317 317 317 316 315 315 315 315 314 313 311 309 309 311 313 313 311 310 309 308 308 308 306 306 306 307 307 308 308 308 308 307 308 308 308 308 308 310 311 311 311 310 310 309 308 307 306 306 308 310 312 313 315 317 319 319 320 321 321 321 321 321 322 321 321 321 321 320 320 320 321 321 321 322 322
320 320 320 320 319 319 318 318 318 319 318 317 317 317 316 316 316 316 314 312 310 308 307 310 313 313 312 311 309 309 309 309 307 306 306 306 307 308 308 308 308 308 308 308 308 308 309 310 311 311 311 310 309 309 308 306 306 307 309 311 312 314 316 317 318 319 320 321 322 321 321 321 321 321 321 321 320 320 319 320 322 322 320 321 322
320 320 319 318 317 317 317 317 318 319 318 318 317 317 317 316 316 316 313 310 307 305 305 310 313 313 312 311 310 310 310 310 308 306 306 306 307 307 307 308 309 308 307 308 309 309 310 311 311 311 311 310 309 308 307 306 306 308 310 312 313 315 317 317 318 319 320 321 322 321 321 320 320 320 321 320 319 319 318 319 321 322 321 320 321
320 320 318 316 315 315 316 317 318 318 318 318 318 317 317 316 316 315 311 307 304 303 306 311 313 313 312 312 311 311 311 311 309 307 305 306 307 307 308 308 308 308 307 308 309 310 311 311 311 311 310 309 309 308 306 306 307 308 310 312 313 315 316 317 318 319 320 322 321 321 321 321 321 321 320 319 319 319 318 318 319 321 322 321 320
319 320 320 318 318 317 318 318 318 318 319 318 318 317 316 317 317 315 311 306 302 303 308 313 313 313 312 312 312 312 312 311 310 308 307 307 307 307 308 308 308 309 308 308 310 311 311 311 311 311 310 309 308 307 306 306 308 309 311 312 313 314 315 317 318 319 320 321 321 321 321 321 321 321 320 319 319 319 318 318 319 320 321 322 321
318 320 320 321 320 320 320 320 319 319 319 318 317 317 317 318 318 316 311 306 302 304 309 313 313 313 313 313 313 313 312 312 309 308 309 309 308 307 308 308 308 308 308 308 310 311 311 311 311 311 310 309 308 307 306 307 308 309 311 312 313 313 314 317 319 319 321 321 320 321 321 321 321 321 320 319 319 319 318 318 318 319 319 321 321
318 320 320 320 320 320 321 321 320 319 319 319 318 318 318 319 319 317 312 306 302 305 310 314 314 313 314 314 313 313 312 310 308 308 309 309 309 308 308 309 309 308 307 307 309 311 311 311 311 311 309 308 307 306 306 307 308 310 311 312 313 313 314 316 319 320 320 321 321 321 321 320 320 320 320 320 320 319 319 318 318 319 319 320 321
318 320 320 319 319 319 320 321 320 319 320 320 319 319 319 319 319 317 311 306 304 305 310 314 313 313 314 314 313 312 312 309 307 308 309 309 309 309 309 310 310 309 308 307 309 310 311 311 311 310 309 308 307 306 307 307 308 310 311 312 313 314 314 316 318 319 320 321 320 320 320 320 319 320 319 320 320 320 319 318 318 318 319 319 320
317 318 318 319 319 319 319 319 319 318 319 320 320 319 319 319 318 315 310 306 304 304 309 313 312 312 314 314 312 312 310 307 306 308 308 308 309 309 309 310 310 309 308 307 308 310 311 311 311 310 309 308 307 306 307 307 308 310 311 313 314 314 315 316 318 319 319 321 320 319 320 320 320 320 320 320 321 320 320 319 318 318 318 318 319
315 315 316 317 318 318 317 317 316 316 318 319 319 319 318 317 315 313 311 308 304 304 308 311 311 313 314 312 310 311 309 306 306 308 308 309 309 309 310 310 310 309 308 307 307 309 311 311 311 310 309 308 307 306 307 307 309 310 311 313 315 315 315 315 317 319 319 320 321 319 320 320 319 320 320 321 321 320 320 319 318 318 318 317 318
310 311 312 313 314 314 313 313 313 315 317 318 319 318 318 316 314 313 312 310 306 305 307 310 312 314 314 311 310 311 309 306 306 307 309 309 309 309 310 310 310 309 308 308 307 309 311 311 311 310 309 309 307 306 307 308 309 310 311 313 315 315 315 315 316 318 319 320 321 320 320 321 320 320 320 321 320 320 320 318 318 317 318 318 317
306 307 308 309 309 309 310 312 314 315 317 319 319 319 318 316 314 314 314 313 309 307 306 309 312 314 314 312 311 310 309 306 306 308 309 309 309 309 310 310 309 309 309 308 308 309 310 311 311 310 310 309 306 306 307 307 309 311 311 314 316 315 315 315 315 316 318 318 319 320 320 320 320 320 321 321 320 320 320 319 318 317 317 317 318
305 305 306 307 307 308 310 313 315 317 319 320 319 320 319 317 313 313 314 314 313 310 308 308 311 313 315 314 311 310 308 306 306 308 309 309 309 310 310 310 309 309 309 308 307 308 310 311 311 310 310 308 306 306 307 308 309 311 312 314 315 314 314 315 315 315 317 318 318 319 319 320 319 320 321 321 321 321 321 320 319 318 316 317 319
304 305 305 306 306 307 310 313 315 317 318 319 320 320 320 319 316 314 314 314 313 313 311 310 310 312 315 314 312 310 307 306 307 309 309 309 309 310 310 309 309 309 309 308 308 308 310 311 311 310 310 308 306 306 307 308 309 311 312 314 314 313 313 315 316 316 317 317 318 318 318 319 319 319 320 321 321 321 322 321 321 319 317 318 319
310 307 306 306 306 307 309 311 313 315 317 319 320 320 320 320 318 316 316 316 315 314 313 312 310 312 315 314 312 310 308 307 307 308 309 309 309 310 309 309 309 309 308 308 308 308 309 311 311 310 310 308 306 306 307 308 309 311 312 314 313 312 314 316 317 317 317 317 317 318 318 318 318 319 319 319 320 321 322 322 322 320 319 319 320
319 316 314 311 309 308 309 310 312 313 315 318 318 319 319 318 316 315 316 318 317 315 313 313 311 311 313 314 312 310 310 309 307 306 307 308 309 309 309 308 308 308 309 308 308 308 310 311 310 310 310 308 306 306 307 308 309 310 312 314 313 312 314 316 317 317 318 318 318 318 318 318 319 319 319 320 321 321 322 322 322 322 320 319 320
326 325 323 320 315 312 310 311 311 311 314 316 316 318 319 317 315 315 316 317 318 317 315 313 312 311 311 312 312 311 311 310 307 305 306 307 307 307 306 305 305 308 309 308 306 308 310 311 310 310 309 307 306 306 307 308 308 310 311 313 313 313 314 315 316 317 317 318 318 318 318 319 319 319 320 321 322 322 322 322 322 322 320 319 320
330 330 329 327 323 319 317 315 313 312 314 315 315 318 318 317 316 316 316 317 318 318 317 314 313 311 310 310 311 311 311 309 306 305 306 306 304 302 302 303 305 308 308 306 306 309 311 311 310 310 309 307 306 307 307 308 309 310 311 311 312 313 313 314 315 316 316 316 317 317 317 318 319 320 320 321 322 322 322 322 321 320 319 319 320
332 332 331 330 328 327 325 323 319 317 317 316 317 318 317 317 317 317 316 317 317 318 317 316 314 312 310 309 311 311 310 309 306 305 306 305 303 300 300 303 306 306 306 306 308 310 311 310 310 310 308 306 306 307 308 309 309 310 310 310 311 311 311 312 313 314 314 315 316 317 317 317 318 320 320 321 322 322 322 322 321 320 320 320 320
333 333 332 332 331 330 329 328 327 325 323 321 319 318 317 318 318 318 318 318 318 318 318 317 315 313 310 309 310 311 310 309 306 305 306 305 302 300 301 304 305 305 306 308 311 311 311 310 310 309 307 306 307 307 308 309 309 310 310 310 310 310 309 310 311 313 314 314 315 316 316 316 317 319 320 321 321 322 321 321 321 322 321 320 320
333 332 332 331 331 330 330 329 328 327 327 326 322 320 319 319 318 319 319 318 318 318 318 317 316 313 312 310 309 310 310 308 306 305 306 304 301 301 303 305 306 307 310 311 311 311 311 310 310 309 307 306 307 307 308 309 309 310 310 310 310 310 310 309 309 311 312 313 314 314 316 316 316 317 319 320 320 321 321 321 321 320 321 320 320
332 331 331 330 329 329 329 329 329 328 328 327 325 323 322 321 320 320 320 319 319 319 318 317 316 314 312 310 309 309 309 308 307 306 305 302 302 303 305 307 309 310 311 312 312 311 310 310 310 308 306 306 307 307 308 309 309 309 309 310 310 310 310 310 309 309 310 312 312 312 314 315 316 317 318 318 317 318 320 321 320 320 320 321 321
330 330 329 329 328 328 328 329 328 327 327 327 326 325 324 324 323 323 321 320 320 319 318 317 316 314 312 310 309 308 308 308 307 306 304 302 304 306 307 309 311 312 312 311 312 311 310 310 309 308 306 307 307 307 308 308 308 308 309 309 310 309 310 310 310 309 310 311 311 311 311 313 314 315 316 316 316 316 318 320 321 320 320 321 321
330 330 329 328 328 328 328 328 327 326 326 325 324 324 324 325 324 324 323 321 321 319 317 317 316 314 312 310 308 308 308 308 307 305 303 304 306 308 309 310 311 311 311 311 311 311 310 310 309 308 307 306 307 308 308 308 308 308 308 309 309 309 309 309 309 309 309 310 310 311 311 311 312 312 313 314 315 315 316 317 319 319 319 320 320
329 329 329 328 328 328 327 326 325 325 324 324 323 323 323 324 324 324 323 322 321 320 318 317 316 314 313 310 308 308 308 308 306 303 303 306 308 308 308 310 311 311 311 311 311 310 310 310 309 308 307 306 307 307 308 308 308 308 308 308 309 308 308 308 307 308 308 309 309 310 310 310 311 311 311 311 312 313 313 314 316 316 317 318 318
325 326 327 327 326 325 323 322 322 322 323 323 322 321 321 322 323 323 322 321 321 320 318 317 316 315 313 310 308 308 308 308 305 302 303 306 307 306 308 310 310 310 311 311 310 310 310 310 309 308 307 306 307 307 307 308 308 307 307 307 307 307 307 307 307 307 307 308 309 309 309 310 310 311 311 311 311 311 311 312 313 313 314 316 317
321 322 321 320 318 316 315 315 316 318 320 320 321 321 321 321 321 322 322 321 320 320 318 317 316 314 311 309 308 309 308 307 303 302 304 306 306 307 308 309 310 309 310 310 310 310 310 310 310 308 307 306 307 307 307 308 308 307 306 306 306 306 306 307 306 306 306 306 307 308 307 308 309 309 309 309 309 310 310 311 311 311 311 311 314
317 316 316 314 312 311 311 313 315 316 317 319 319 320 320 321 321 321 321 321 320 319 318 316 315 313 310 309 308 308 308 306 303 303 305 306 307 308 308 308 309 309 309 310 310 310 310 310 309 309 307 306 307 307 307 307 307 306 306 306 305 305 306 306 305 304 304 305 306 306 305 305 306 307 307 306 307 307 308 308 309 310 309 309 310
313 313 312 311 310 311 312 314 315 316 316 316 317 318 319 320 320 321 321 321 320 319 317 315 314 312 310 308 306 306 307 305 303 305 306 306 307 308 308 308 308 308 308 309 310 310 310 310 309 308 307 307 307 307 307 306 306 307 306 306 305 304 305 305 304 303 303 303 303 303 303 303 304 304 304 304 305 306 306 306 307 308 309 310 309
312 311 310 310 310 311 312 313 314 315 315 315 316 317 318 319 319 320 320 320 320 319 317 315 314 313 310 307 305 305 307 305 304 305 306 306 307 308 308 308 308 308 308 309 310 310 310 310 309 309 308 307 307 307 307 307 307 307 306 306 305 304 304 304 303 303 302 302 302 303 302 302 303 302 302 302 303 303 304 305 306 306 307 308 309
310 310 309 309 310 310 311 312 313 314 315 315 315 315 317 319 318 318 319 319 319 318 316 314 314 312 310 307 305 305 307 305 304 305 306 306 307 308 308 309 308 308 309 309 310 310 310 310 309 308 308 307 306 307 307 307 307 307 307 306 306 305 305 304 303 303 303 303 303 303 303 303 303 303 302 302 302 302 302 304 305 306 306 306 307
309 309 309 309 310 310 310 311 311 312 313 314 314 314 316 318 317 317 318 319 318 318 316 314 313 312 310 307 305 304 306 306 305 305 306 306 307 307 308 308 308 308 309 309 309 309 310 310 309 309 308 307 307 307 307 307 307 307 307 307 306 306 305 304 304 303 303 303 303 303 303 303 303 303 303 303 302 301 301 301 303 305 306 306 306
309 310 310 310 310 310 310 310 311 311 312 312 313 313 315 317 318 316 316 317 318 318 316 314 313 311 309 308 305 304 306 307 305 305 306 306 306 307 308 308 308 308 308 309 309 309 309 310 309 309 308 307 306 307 307 307 307 307 307 307 307 306 305 304 304 304 304 304 303 303 303 303 303 303 303 303 303 301 300 300 301 302 304 305 306
310 310 310 310 310 310 311 311 311 311 311 311 312 312 313 316 317 315 314 315 316 317 315 314 313 311 310 308 304 303 305 306 305 306 306 306 306 307 307 308 308 308 309 309 309 309 309 310 309 309 308 307 306 306 307 307 307 307 307 307 307 306 306 305 304 304 304 304 304 304 304 304 304 304 304 303 303 302 301 300 300 300 301 303 305
308 308 308 308 309 309 309 310 310 310 311 311 311 312 313 316 317 314 313 314 314 315 315 315 313 311 310 307 304 304 305 305 305 306 305 306 307 307 307 308 308 308 309 309 309 309 309 310 310 309 308 307 306 306 306 307 307 307 307 307 306 306 306 305 304 304 304 304 304 304 304 303 303 303 303 303 302 301 301 301 300 300 300 301 302
305 305 305 305 305 305 306 306 306 307 308 310 311 311 312 316 317 314 313 314 313 313 314 314 313 311 309 306 304 305 305 304 305 305 305 306 307 306 307 308 308 308 308 308 308 308 309 309 310 309 308 307 306 306 306 306 306 306 307 307 306 306 306 305 304 304 304 304 304 304 304 303 303 303 303 302 301 301 301 300 300 300 301 300 301
304 304 304 304 304 304 304 304 304 305 305 307 309 310 311 314 317 315 312 312 312 313 314 313 312 312 309 304 302 303 304 305 305 305 306 306 306 306 307 308 308 308 308 308 308 308 308 309 309 309 308 307 306 306 306 306 306 306 307 307 306 306 305 305 305 305 304 304 304 304 304 304 303 303 303 302 302 301 300 300 300 301 301 302 302
Wind_Speed
16 13 9 9 10 10 11 12 12 14 13 12 11 8 7 7 7 7 7 8 9 10 12 14 15 17 19 20 17 14 13 12 11 10 9 8 8 7 8 9 11 12 12 12 12 14 16 18 20 23 25 26 26 25 25 24 24 24 25 25 26 26 27 28 29 29 30 30 30 31 31 32 32 33 34 35 36 36 37 37 37 37 36 36 35
16 14 11 9 10 11 12 13 14 14 12 9 7 7 8 8 8 9 9 11 12 13 12 13 15 16 18 17 14 12 11 11 10 10 9 8 8 8 9 10 11 13 14 14 15 16 18 20 22 24 23 22 21 21 21 22 23 24 24 25 26 27 28 29 29 30 31 32 32 32 33 34 34 35 36 37 38 39 39 39 39 38 38 37 36
16 15 11 9 10 11 13 13 12 11 9 7 4 6 7 8 10 11 12 13 15 17 15 14 14 15 16 15 13 12 11 10 10 10 9 9 10 10 11 12 13 14 15 16 18 19 20 21 22 20 19 18 19 19 21 22 22 23 25 26 27 28 29 30 31 32 32 32 33 33 34 35 36 37 38 38 39 40 40 40 39 39 39 39 37
15 14 10 9 9 11 12 11 9 9 9 6 3 5 7 8 10 11 13 15 17 19 18 15 14 14 14 13 13 13 11 10 10 10 10 11 11 12 13 14 15 16 17 18 19 20 21 20 18 17 17 18 19 20 21 21 22 24 25 26 27 28 30 31 32 31 31 31 32 32 33 34 35 37 38 39 39 40 40 40 41 41 40 40 39
14 13 10 9 8 9 9 9 8 8 8 6 3 5 7 7 10 12 14 16 18 19 18 16 15 13 12 12 13 12 11 10 10 11 11 12 12 13 14 16 17 17 18 19 19 19 18 16 16 17 18 19 20 20 21 21 22 24 25 27 28 30 31 31 31 30 30 31 32 33 34 35 36 38 39 39 39 40 41 41 42 42 41 42 41
13 11 9 8 6 7 8 9 9 8 7 5 5 6 7 8 11 14 16 17 19 19 18 17 16 13 11 11 12 12 11 10 11 11 11 12 12 13 15 16 17 18 18 18 17 16 15 15 16 17 18 20 20 21 21 22 23 24 27 29 31 32 31 31 30 31 31 32 34 35 35 36 38 39 39 40 40 41 41 42 43 43 43 43 43
10 8 7 6 6 7 9 10 10 9 7 6 7 8 8 10 13 15 16 18 19 19 18 17 17 14 11 11 11 12 11 11 11 11 11 11 11 13 14 15 16 17 17 16 15 14 14 15 16 18 19 21 22 22 22 23 24 26 29 31 34 34 32 31 31 33 33 34 35 36 37 38 39 39 39 40 41 42 43 43 44 45 45 45 45
9 7 6 6 7 7 8 9 9 9 8 8 9 10 10 12 14 16 17 17 18 18 17 16 17 15 13 11 11 11 11 11 10 10 10 10 10 11 12 13 14 15 15 15 14 14 14 15 17 18 20 22 22 22 23 24 26 28 30 33 35 35 33 33 33 33 32 33 34 36 37 37 38 38 38 39 40 41 42 43 43 45 45 45 46
8 7 8 8 7 8 8 9 10 10 10 10 11 12 13 13 14 16 17 18 18 18 17 16 16 15 14 12 11 11 10 11 10 9 9 9 10 11 12 13 13 14 14 13 13 14 14 16 18 19 20 22 22 22 24 26 28 30 32 34 36 36 35 34 32 30 31 33 35 36 37 36 36 37 37 37 38 39 39 40 41 42 43 44 46
8 8 9 8 8 8 9 10 11 11 11 12 11 12 13 14 15 16 17 18 19 19 18 17 16 16 14 12 10 8 9 11 9 8 9 10 11 11 12 13 14 14 13 13 13 14 16 17 19 19 20 21 22 24 26 28 30 31 33 36 37 37 35 32 29 30 32 34 36 36 35 35 34 35 36 36 35 35 34 34 36 37 38 40 43
9 9 9 9 8 9 10 11 12 12 12 13 12 13 14 15 16 16 17 18 19 19 18 18 17 16 14 11 8 6 7 10 9 8 10 11 12 12 13 14 15 15 14 13 14 15 16 17 18 19 21 22 24 27 28 31 32 33 35 37 37 36 33 30 30 32 33 33 34 34 33 34 34 35 34 32 30 29 29 31 33 34 35 37 38
10 10 11 11 11 10 10 11 12 12 13 14 14 14 14 16 17 17 18 18 20 19 18 18 17 17 14 10 7 6 6 8 10 9 10 11 12 12 13 14 15 15 15 14 13 14 15 16 18 21 23 24 26 28 30 32 33 34 36 37 37 34 31 30 30 32 32 32 32 32 35 36 34 31 29 27 26 26 27 29 31 30 30 32 32
11 11 12 13 13 13 12 12 13 13 14 15 16 15 16 17 18 18 18 20 20 18 18 18 18 19 17 12 6 5 5 5 13 13 8 9 12 12 13 14 15 15 14 13 12 13 15 17 20 22 24 25 28 30 32 33 34 36 37 37 36 33 30 30 29 30 30 31 33 34 36 33 29 25 24 24 25 24 25 27 28 25 23 25 27
11 13 14 14 15 15 14 13 14 15 15 16 16 16 17 18 19 19 19 21 21 19 19 18 19 20 19 17 9 6 5 5 14 14 5 9 13 12 13 15 15 13 13 13 13 15 16 18 21 23 24 26 30 32 33 34 35 36 36 36 35 32 31 29 29 30 30 33 35 33 31 28 24 23 22 23 23 23 23 25 24 19 17 19 22
12 13 15 15 16 16 16 15 15 16 17 17 17 18 19 19 20 21 21 22 21 19 18 17 19 19 19 18 12 12 9 8 19 14 2 9 14 12 15 17 16 13 13 14 15 16 17 19 22 23 25 28 31 33 34 35 36 36 35 36 35 32 31 30 28 29 31 34 33 28 26 25 23 21 20 21 21 21 21 23 20 14 13 15 20
12 14 15 16 16 16 16 16 16 17 19 19 19 18 19 20 20 21 22 22 21 20 18 16 17 18 17 15 12 12 11 15 26 15 4 12 14 13 16 18 18 14 13 15 15 16 17 19 22 24 26 30 32 32 34 35 35 36 35 36 35 31 30 31 29 29 32 34 30 26 25 23 21 19 19 19 19 19 19 19 17 11 10 12 17
13 14 15 15 15 15 15 16 16 17 19 20 19 19 19 20 20 21 22 21 21 20 17 14 15 16 15 13 9 9 12 21 25 15 13 16 14 16 17 17 20 16 13 15 15 16 18 20 22 24 27 30 31 33 34 35 35 36 36 37 34 29 28 31 31 31 34 34 28 24 23 21 19 18 18 18 17 17 16 15 14 10 8 11 15
14 13 13 13 13 13 14 15 16 17 18 19 19 19 19 19 20 21 21 20 20 18 15 13 14 15 13 12 10 10 15 21 20 18 22 19 15 19 18 18 21 18 14 16 16 16 18 21 22 25 28 29 31 33 34 34 36 36 37 38 35 28 27 30 32 32 33 32 27 23 22 20 19 18 17 17 16 15 14 13 11 8 6 9 13
13 12 12 12 12 13 13 14 16 16 17 18 18 18 18 18 19 21 21 20 19 17 14 13 13 13 12 12 12 12 15 17 17 19 22 21 21 22 19 20 21 19 17 16 16 18 20 22 23 26 28 29 32 33 34 35 36 36 37 38 34 29 27 29 32 33 33 31 26 23 22 20 19 17 16 16 14 14 13 11 9 7 4 6 9
12 12 13 13 14 14 15 15 16 16 16 17 17 17 17 17 19 21 20 19 18 16 14 13 13 13 12 11 13 14 14 16 15 14 15 21 26 23 22 22 21 20 18 16 17 18 21 23 24 27 29 30 32 33 33 35 36 36 38 38 34 32 29 27 30 32 32 31 26 23 22 19 18 16 15 15 13 12 11 10 8 6 4 3 6
12 13 14 14 15 16 17 17 17 17 17 17 17 17 17 18 20 20 20 18 16 15 15 14 13 13 12 12 14 14 14 16 13 10 12 17 22 24 26 26 23 21 18 17 17 18 21 24 25 27 29 30 32 32 34 35 35 36 39 37 33 33 29 24 28 31 31 31 26 23 23 20 19 16 14 14 12 11 10 8 7 5 3 1 3
13 13 14 15 16 17 17 18 18 18 17 17 17 17 17 18 20 20 19 17 15 15 15 14 14 14 12 13 14 13 15 16 12 10 11 14 18 22 24 25 25 24 20 18 18 18 21 24 26 27 28 31 32 32 34 35 35 36 38 35 32 33 28 22 25 29 31 32 27 23 23 20 19 17 15 14 12 11 9 8 6 4 2 0 3
13 14 14 15 16 17 17 18 18 18 17 16 16 16 17 18 20 20 18 16 15 14 15 15 15 13 12 13 13 13 15 16 13 10 12 14 17 21 22 22 23 24 22 19 18 19 22 24 27 27 28 31 32 32 34 34 34 37 37 34 31 32 29 22 21 25 29 32 28 24 22 20 18 17 15 14 13 11 9 8 6 4 2 0 3
14 14 14 15 16 17 18 18 18 17 16 16 16 16 16 17 18 18 16 15 14 14 14 15 14 12 12 13 12 13 15 16 13 11 12 14 17 19 20 21 22 24 22 19 17 19 22 24 26 27 28 31 31 31 33 34 34 36 36 32 29 31 31 25 20 20 24 29 29 25 23 20 18 17 16 14 13 12 10 9 7 4 3 2 3
15 15 15 16 17 18 18 18 17 16 15 15 15 15 16 16 16 15 14 14 13 12 13 13 12 12 12 13 12 13 15 15 13 11 13 14 16 17 18 19 21 23 21 19 18 19 21 24 26 26 28 30 30 30 32 33 33 35 33 29 27 29 32 28 22 18 19 24 26 25 24 22 19 18 17 15 13 11 10 8 7 5 5 5 4
15 16 16 17 18 18 18 17 16 15 15 15 15 15 15 15 14 14 13 13 12 12 13 12 12 12 12 13 12 13 15 14 12 11 12 13 14 16 17 19 20 21 20 20 19 19 21 24 25 26 27 29 29 29 31 31 31 33 30 25 25 28 30 30 25 20 18 20 23 24 23 22 20 18 18 17 14 11 9 8 8 7 7 7 7
16 17 17 18 18 18 18 17 15 14 14 15 15 15 15 15 15 15 14 14 13 13 12 12 12 12 12 13 13 13 14 13 11 11 12 13 14 13 15 18 20 20 20 19 18 19 21 24 24 24 26 28 27 28 30 29 29 30 27 23 25 28 29 29 27 25 22 20 21 23 22 21 19 17 17 18 15 12 10 10 8 7 7 8 9
16 17 17 18 18 19 18 17 16 15 15 15 16 16 16 16 15 15 15 15 15 14 13 13 14 13 13 13 13 13 12 11 10 11 12 13 13 12 13 15 17 18 19 19 19 18 20 23 24 23 25 26 25 26 28 27 28 27 25 24 26 29 28 27 27 28 27 25 22 23 24 23 21 19 17 16 15 14 13 11 10 9 8 8 11
16 16 17 17 18 19 19 18 17 16 16 16 16 17 18 17 16 16 16 16 16 15 14 15 15 13 13 13 13 13 11 10 10 12 13 13 12 12 13 14 15 16 17 18 20 18 19 22 23 22 24 24 23 25 26 26 26 25 23 23 27 31 28 26 27 28 28 27 25 24 23 23 23 21 19 16 14 14 13 12 11 11 10 10 13
15 16 17 18 18 19 19 19 18 17 17 17 17 18 18 18 18 17 17 17 17 16 15 15 15 14 13 12 12 12 12 11 11 12 13 13 12 13 13 13 14 14 15 17 18 17 17 20 20 20 22 23 21 23 25 25 24 23 22 24 29 33 31 30 31 31 31 30 29 26 23 23 23 22 20 18 15 14 14 13 13 14 13 13 14
16 17 17 18 19 19 19 19 18 17 18 17 17 18 18 19 18 17 16 18 19 17 15 15 15 15 14 12 12 12 12 11 12 12 11 11 12 14 14 13 12 13 14 15 16 15 16 18 18 18 20 21 19 20 23 24 23 21 20 23 27 30 33 35 35 34 36 35 34 32 27 24 23 21 20 19 18 16 16 16 16 16 16 16 15
15 17 18 19 19 19 19 19 18 17 18 18 17 17 18 19 19 17 17 17 19 18 17 16 16 15 14 13 12 12 12 12 11 10 10 12 13 14 13 11 9 11 12 13 13 12 13 16 16 16 18 19 18 19 21 22 22 20 19 20 21 24 29 34 34 33 35 36 37 39 36 29 24 22 21 20 20 19 19 19 18 19 20 19 18
17 18 19 20 20 19 19 18 17 17 18 19 18 17 19 19 19 18 18 18 19 18 17 17 16 15 14 13 13 13 12 12 11 9 10 13 14 12 10 8 8 10 10 9 9 9 10 13 14 14 16 17 17 18 20 20 20 19 18 19 20 21 24 27 28 30 32 34 34 38 41 37 31 28 26 24 23 21 21 21 21 22 22 21 21
18 18 19 20 20 19 18 18 17 17 17 18 18 18 19 20 19 19 19 19 19 18 18 18 17 15 13 13 13 13 12 11 10 9 11 14 13 11 9 8 8 7 6 6 8 9 10 11 12 13 15 16 16 18 18 18 20 19 18 19 20 22 23 24 23 24 29 32 33 35 38 39 39 38 33 29 26 23 23 23 23 24 24 24 25
17 17 17 17 18 18 17 18 18 18 18 19 19 19 20 21 20 20 20 21 20 19 19 18 17 15 13 12 13 13 11 10 9 9 11 13 12 10 10 8 6 5 5 6 8 8 10 11 11 12 14 15 15 16 15 16 18 19 20 20 21 22 24 25 23 23 26 30 32 34 35 35 42 45 40 35 32 28 25 23 24 26 27 27 27
16 16 16 16 17 18 18 20 20 20 19 20 20 19 20 21 21 21 22 22 22 21 20 18 17 16 13 12 12 12 10 9 8 8 11 11 10 9 9 7 5 5 6 7 7 8 9 10 10 12 14 14 14 13 12 14 17 19 20 21 21 23 25 25 25 26 27 28 30 33 33 33 38 43 43 41 40 39 35 29 26 27 29 30 30
17 18 18 18 19 21 21 22 23 22 20 20 20 20 20 20 21 22 23 24 24 23 21 19 16 15 13 12 11 10 9 8 7 7 9 8 8 8 7 4 5 5 6 6 7 8 9 9 9 11 13 12 12 11 10 12 15 18 20 22 23 25 27 27 28 29 30 30 30 31 32 33 34 37 40 41 42 44 43 39 34 31 31 33 35
20 20 21 22 23 24 24 24 23 22 21 21 21 21 20 19 20 22 23 25 26 24 21 19 17 15 14 13 10 8 8 8 6 6 6 6 6 6 5 4 5 5 5 6 6 7 8 8 8 9 12 12 12 11 10 10 13 16 19 22 23 25 28 30 32 33 33 32 32 32 34 35 33 33 35 37 37 40 43 43 41 38 36 36 36
22 23 23 24 24 24 24 23 21 21 21 21 21 20 20 20 19 20 21 23 23 21 19 19 17 15 14 11 8 6 7 7 5 4 3 3 5 5 4 4 4 4 5 5 6 6 6 7 7 9 12 13 12 11 9 9 12 15 18 21 24 26 29 32 34 35 34 33 33 34 35 36 35 34 34 36 35 34 37 39 40 40 40 40 39
21 22 23 23 23 23 23 22 21 21 21 20 20 19 19 19 19 19 19 19 18 17 16 16 16 15 13 9 7 6 6 7 4 2 2 2 5 5 4 3 3 4 4 4 5 5 5 6 7 9 11 12 11 10 8 7 11 15 18 21 26 28 29 32 35 35 34 33 33 33 35 37 36 36 36 37 37 35 34 34 34 35 36 37 39
21 21 21 22 22 22 22 22 20 20 19 18 18 18 17 17 17 18 17 16 15 14 13 13 14 14 11 8 7 6 7 7 4 2 1 2 5 4 3 3 3 4 4 3 4 4 4 5 6 8 10 11 10 8 7 9 13 18 19 21 26 29 28 30 35 36 35 35 33 34 37 38 38 38 38 39 39 37 36 35 34 32 31 32 32
21 21 21 21 21 21 21 20 19 18 17 16 16 16 16 16 17 17 16 14 13 11 9 11 12 11 7 6 6 6 8 7 4 3 1 2 2 3 4 4 4 4 3 3 3 3 4 5 7 8 10 12 11 9 9 12 15 18 19 20 25 28 27 28 31 33 33 34 33 34 37 37 37 39 40 41 41 39 39 38 35 32 31 30 30
21 21 21 21 21 20 20 19 18 17 16 16 16 16 16 17 16 16 14 13 10 6 7 9 9 7 6 5 4 5 9 8 6 4 1 1 0 1 5 5 5 5 3 3 3 4 4 6 8 9 11 12 11 9 9 11 13 15 17 20 24 27 28 29 30 30 31 33 34 36 39 37 36 38 39 39 39 39 40 38 34 33 32 31 31
22 22 22 22 21 20 20 19 18 18 17 17 17 17 17 16 16 15 13 12 8 5 5 8 7 7 7 4 4 6 10 10 7 5 3 1 2 1 4 6 5 5 4 4 5 4 5 7 8 10 11 12 11 9 7 9 11 12 16 20 24 27 29 29 29 28 29 33 35 38 40 38 38 41 41 39 36 36 36 36 35 35 33 31 31
22 22 21 21 20 20 19 19 18 18 19 19 18 17 17 16 15 15 13 10 8 5 5 7 7 7 5 4 4 7 11 11 8 7 5 3 3 2 3 5 5 4 4 5 5 4 5 7 8 10 11 12 11 9 7 8 9 11 15 20 23 25 27 25 24 24 27 30 34 37 37 36 37 40 41 40 37 34 33 33 34 35 35 33 31
21 21 20 19 19 19 19 18 18 19 19 19 18 17 17 15 15 15 12 9 7 6 5 6 6 7 5 5 4 8 12 12 9 7 6 4 3 1 2 4 4 3 3 5 6 5 5 7 9 10 12 13 12 10 8 7 7 10 14 18 20 22 23 22 21 22 25 27 29 33 34 32 33 36 37 36 37 36 33 31 30 32 33 33 31
20 19 18 18 18 18 19 19 19 19 18 18 17 17 17 16 15 14 11 7 6 6 6 6 6 7 5 4 4 8 13 12 9 7 6 5 3 1 1 2 3 3 3 5 6 6 6 8 10 11 12 13 12 11 9 7 8 10 12 15 18 21 23 23 22 22 24 24 26 31 32 29 29 32 32 31 33 34 34 32 30 28 29 30 31
19 18 19 20 20 20 20 20 20 20 19 18 17 16 17 16 14 11 8 7 7 6 6 7 7 7 6 5 5 8 11 11 9 8 7 5 3 2 0 1 3 2 3 6 6 6 6 9 10 11 12 13 12 10 8 7 8 9 11 14 17 19 21 22 21 21 22 23 25 28 29 25 25 28 29 29 31 32 32 31 30 29 28 27 28
23 23 23 23 23 23 23 23 23 22 20 18 17 16 15 14 12 9 5 5 6 6 6 7 8 8 7 5 6 8 9 8 8 8 8 6 4 3 3 1 2 0 4 6 6 5 6 8 10 11 12 12 12 11 8 7 7 8 11 14 15 16 18 19 18 18 20 22 22 24 26 25 23 25 27 27 29 30 29 28 28 28 28 27 26
25 26 26 25 25 25 25 25 24 23 20 19 17 15 14 12 10 9 6 4 4 5 6 6 7 9 7 4 7 8 7 6 7 7 7 6 4 5 5 2 1 1 4 6 6 6 6 7 9 11 13 13 12 12 9 8 7 7 10 13 14 15 17 17 17 16 17 19 19 20 22 22 19 20 23 26 28 28 26 26 28 29 30 29 28
25 26 26 27 26 26 25 24 23 21 19 18 16 16 14 11 9 9 8 4 2 2 3 4 6 10 7 6 8 8 7 6 6 6 6 6 5 7 6 3 1 2 4 5 6 5 5 6 8 10 13 14 13 12 10 7 7 7 8 11 13 15 17 17 16 14 14 16 15 15 17 17 15 15 17 21 25 26 24 27 29 29 29 30 30
Wind_Direction
359 356 334 308 305 316 325 329 326 326 331 337 343 347 354 3 10 10 0 349 339 329 322 319 320 320 324 328 331 337 345 346 346 348 346 338 331 319 300 290 288 287 288 289 290 294 296 298 300 302 303 303 303 304 304 304 305 306 306 306 304 303 302 301 299 297 295 292 290 287 286 284 283 282 281 280 280 278 276 275 273 273 272 271 269
357 356 347 323 312 320 330 331 323 323 332 337 339 339 344 357 359 359 4 3 358 350 340 331 327 325 327 332 334 337 340 340 342 343 340 333 326 318 308 299 295 293 293 294 297 299 301 304 306 306 307 307 307 306 305 305 306 307 306 305 304 304 303 301 300 297 295 292 290 288 286 285 283 282 281 280 279 277 276 274 272 271 270 269 267
354 354 352 332 318 326 333 331 326 333 350 353 349 339 339 351 351 352 1 4 2 358 351 343 337 331 331 335 334 332 329 326 330 332 330 326 320 314 308 303 301 300 300 301 303 304 306 308 308 309 310 311 311 310 309 308 307 307 306 305 304 304 302 301 299 297 295 292 290 288 287 286 285 283 282 280 279 277 276 274 272 270 269 268 266
351 352 352 335 324 328 333 333 339 358 9 11 7 338 335 345 346 351 360 1 359 358 355 351 346 338 333 335 334 329 321 315 317 320 320 317 314 310 306 304 303 302 303 303 304 306 308 309 309 311 313 314 314 312 311 310 307 306 306 305 305 304 304 303 301 298 295 293 291 290 290 289 288 286 284 281 279 278 276 274 272 270 268 266 264
348 352 354 349 338 334 342 350 3 12 13 14 357 329 328 339 349 353 358 357 354 356 358 355 349 341 332 332 333 327 318 312 312 312 311 310 307 305 304 303 302 302 302 302 305 308 309 307 309 312 315 316 317 316 314 312 309 308 308 309 309 309 309 307 303 300 296 295 293 292 292 291 290 288 286 284 281 279 276 274 272 269 267 265 263
346 351 359 4 355 353 9 13 13 15 14 5 339 325 325 338 352 355 355 353 351 354 357 355 352 346 333 329 329 325 317 313 314 312 309 308 307 306 305 304 303 303 305 308 311 311 307 305 309 314 317 320 321 321 318 315 314 313 315 315 315 316 314 308 304 300 297 295 293 292 292 291 290 289 287 285 282 280 277 274 271 268 265 263 261
341 348 358 3 353 358 18 19 14 12 5 349 332 325 329 340 351 353 352 350 349 351 354 354 355 352 341 332 327 320 314 314 317 314 314 315 313 309 307 307 308 309 312 314 313 309 306 305 310 315 319 324 325 323 321 320 321 321 321 320 320 320 316 309 302 298 296 294 294 294 293 292 291 289 287 284 282 280 277 274 271 269 266 262 258
338 340 344 344 342 349 7 13 10 4 350 334 326 326 333 342 347 350 351 349 347 349 351 352 354 353 345 333 325 316 309 314 317 316 324 324 318 314 313 314 314 316 317 315 311 308 307 308 312 318 323 327 327 326 326 326 327 326 324 324 324 321 317 310 304 301 300 298 298 296 295 294 293 291 289 287 285 282 279 276 272 269 267 262 257
344 338 337 334 333 340 354 1 358 355 344 331 323 325 333 340 343 346 348 347 346 346 347 348 351 353 345 330 322 315 306 313 314 313 326 326 321 321 321 323 321 321 322 317 313 310 310 313 316 320 324 327 328 329 330 330 330 328 327 326 325 323 319 314 311 311 309 306 303 301 299 297 295 295 295 292 289 287 285 280 275 270 267 262 256
352 344 340 334 327 334 346 349 347 347 345 337 328 327 333 336 338 343 345 345 344 343 343 343 346 351 347 331 321 315 306 317 314 305 322 325 323 327 327 329 327 325 325 320 317 314 315 317 317 320 325 328 330 332 333 332 331 329 328 328 328 326 322 318 319 317 313 309 307 305 302 300 300 300 299 296 292 289 288 284 280 275 269 261 255
343 343 342 339 331 333 340 340 338 341 345 342 337 333 332 333 335 340 344 343 341 339 338 339 341 347 351 338 324 315 314 332 326 302 317 325 324 327 329 330 329 326 325 322 319 317 317 319 319 324 329 333 334 335 334 333 332 330 329 330 331 328 323 322 323 319 314 312 310 309 306 304 306 305 302 300 296 292 291 290 286 279 269 259 253
326 331 333 335 332 333 336 336 332 334 340 342 340 337 332 330 331 337 342 341 338 336 334 335 336 344 355 350 323 309 317 350 350 321 311 324 328 328 330 333 332 330 329 328 325 323 322 323 326 331 335 336 337 336 335 336 334 332 332 333 332 328 326 328 327 321 319 317 314 312 309 309 310 308 306 305 302 300 298 297 292 282 268 256 248
315 321 323 325 326 328 331 334 331 329 333 338 339 337 333 329 328 334 338 337 336 333 331 333 336 344 354 356 336 298 293 326 350 341 317 329 337 333 337 342 341 337 338 339 337 333 330 330 332 337 338 338 337 337 338 338 336 335 336 335 333 330 331 333 330 326 324 322 319 316 314 314 316 313 311 309 306 307 305 304 299 284 266 251 242
309 314 317 317 318 320 323 327 328 326 328 333 336 335 332 328 326 331 333 333 333 331 331 332 338 344 348 351 351 331 306 297 341 348 330 341 347 342 349 355 351 346 345 346 342 339 336 335 337 339 340 340 340 341 341 339 338 339 338 337 336 335 335 337 334 331 329 327 324 321 319 319 320 317 315 312 310 313 312 313 308 286 261 246 235
307 308 311 312 310 312 315 318 321 322 323 327 331 332 330 326 325 329 329 330 329 328 330 329 335 342 344 346 342 337 337 327 340 347 330 347 351 351 358 4 360 351 347 346 342 342 339 338 339 340 341 343 344 344 342 341 341 341 340 340 341 339 338 340 340 334 333 332 330 328 327 324 323 321 318 315 315 316 316 319 316 291 259 241 224
306 305 306 305 303 305 308 311 314 317 318 321 325 328 327 324 324 327 326 326 325 324 326 325 329 339 344 344 335 334 340 336 340 345 341 345 352 359 0 5 3 354 349 348 345 345 341 339 342 342 345 347 346 345 344 343 343 342 342 343 344 344 344 345 345 340 337 337 335 333 331 328 327 325 322 321 320 320 318 323 325 299 262 237 218
304 304 303 300 298 300 305 309 312 313 313 315 319 323 323 322 325 327 324 322 321 320 321 320 323 332 341 345 337 331 332 335 340 339 331 338 351 1 359 3 4 358 354 353 351 348 342 341 344 346 350 349 347 347 345 346 346 344 345 347 346 346 346 347 347 343 341 341 340 338 336 333 332 330 328 327 325 325 322 326 333 314 263 234 222
298 302 305 304 301 303 307 310 311 309 309 310 315 319 320 321 324 325 323 319 317 317 317 316 318 324 334 342 340 330 328 336 338 328 329 335 346 354 355 0 4 1 359 358 355 352 346 344 346 350 353 350 349 348 347 348 349 347 348 348 347 345 344 347 348 344 344 345 343 342 342 339 338 336 334 333 329 331 328 328 337 330 274 233 224
291 299 308 312 311 310 310 309 309 307 308 311 314 317 316 317 323 324 322 318 314 313 312 310 312 320 330 339 340 334 329 333 331 325 327 328 334 346 351 356 2 3 2 2 358 354 351 349 350 353 354 352 350 349 349 351 350 349 350 350 349 349 349 351 351 347 348 350 347 347 349 346 345 344 343 340 335 336 334 333 336 331 302 241 221
287 297 304 310 310 311 310 309 310 311 311 313 315 315 313 314 321 323 321 317 311 308 306 306 310 319 328 335 337 333 328 328 326 320 316 317 325 338 347 350 359 5 3 3 360 355 353 351 352 355 355 353 352 352 353 353 351 351 352 352 351 352 354 357 357 353 352 353 352 353 355 353 352 354 352 346 342 342 341 341 340 335 324 265 215
286 293 297 302 305 308 308 308 311 313 313 315 316 316 313 314 320 321 318 315 310 302 299 302 309 318 326 331 332 328 326 327 323 313 306 311 320 332 342 344 351 2 6 4 360 356 353 351 354 357 356 355 354 355 357 355 353 354 354 353 352 353 356 359 3 3 1 359 357 357 360 360 0 2 359 354 350 349 347 348 349 348 341 285 202
282 288 292 299 303 306 306 306 308 311 313 315 316 316 314 316 318 316 314 313 309 301 296 298 306 315 321 327 328 324 325 326 320 308 307 313 318 327 337 339 342 352 1 3 1 358 354 352 354 359 359 356 355 358 359 356 356 357 356 356 354 355 359 0 2 8 10 7 3 3 5 5 7 7 4 4 3 360 357 356 357 0 1 232 174
285 288 292 299 302 305 305 305 306 309 312 314 315 314 315 317 315 312 313 314 311 304 296 296 303 309 316 323 324 322 324 324 316 305 308 316 319 323 332 334 335 344 352 359 2 358 355 352 355 1 1 357 357 360 360 357 359 359 359 359 358 2 6 4 2 8 14 14 10 8 10 9 10 8 7 11 9 6 7 9 10 11 10 87 161
291 292 295 298 300 303 304 306 307 309 313 314 313 313 314 315 313 311 316 320 316 306 296 296 301 306 316 324 322 320 324 323 313 303 306 315 318 320 327 330 333 340 347 357 2 358 354 351 355 2 1 357 358 1 0 359 2 2 1 2 3 8 10 6 6 8 13 17 15 15 16 13 12 8 7 11 9 5 9 17 23 29 40 77 146
294 295 297 298 299 302 304 305 306 308 311 311 311 310 310 311 310 307 313 321 320 310 300 298 301 305 316 325 322 319 324 323 313 303 303 310 315 318 323 328 332 337 345 355 360 357 353 351 354 1 0 357 359 3 2 2 5 4 2 3 5 11 11 7 9 11 9 12 15 17 18 15 16 14 9 9 9 9 11 19 27 43 66 81 116
299 300 301 302 302 302 303 304 304 305 306 307 309 309 307 308 307 303 308 319 323 318 311 303 300 303 315 325 322 319 322 320 310 301 300 307 314 317 320 327 332 337 344 352 357 357 351 350 353 359 360 358 0 5 3 4 8 5 3 5 9 16 14 6 8 14 11 8 10 14 15 13 14 15 14 13 11 10 17 27 35 50 70 86 109
306 306 306 305 304 302 301 301 301 301 302 305 306 306 304 304 307 306 307 313 317 319 319 310 301 300 310 320 319 317 320 317 306 300 300 307 315 317 321 328 332 337 342 347 356 358 350 347 351 358 0 359 2 7 5 7 11 7 8 12 17 23 19 9 14 22 20 16 14 17 16 13 11 11 14 18 17 13 22 36 47 60 73 90 108
310 309 308 307 305 302 300 299 299 299 300 301 302 303 302 301 307 310 307 308 312 314 316 314 309 301 304 313 313 312 318 318 307 300 299 308 316 317 321 330 331 332 338 342 348 354 348 344 349 357 0 360 5 8 7 10 12 10 15 20 26 35 28 17 24 31 28 26 27 26 20 14 13 12 12 17 21 22 28 40 55 71 83 95 106
316 314 312 309 306 304 300 298 298 299 299 300 301 303 302 301 305 308 305 303 307 310 309 311 313 303 298 306 307 309 320 325 313 301 300 306 314 313 316 328 330 327 331 334 337 344 344 341 347 356 359 1 7 9 10 13 14 14 23 33 41 47 44 36 38 41 36 30 29 29 22 16 16 16 15 16 21 27 35 46 61 73 85 97 108
322 321 318 315 312 308 305 303 301 300 300 300 301 300 300 300 301 304 304 298 298 306 306 306 310 304 297 300 303 307 318 327 320 308 303 305 308 308 312 323 327 321 324 327 329 338 341 339 346 355 357 2 10 11 12 15 16 17 29 46 53 53 55 57 53 52 50 41 35 32 28 25 25 24 24 27 34 40 46 57 68 76 88 99 106
327 325 321 318 314 309 305 303 302 301 300 300 301 298 296 298 298 299 303 298 294 299 303 303 306 304 298 296 297 301 309 321 324 318 316 315 312 309 310 317 320 314 317 321 325 335 337 337 347 355 357 4 14 15 13 16 18 19 27 45 55 53 55 61 61 58 56 52 47 43 38 37 36 34 34 39 48 54 58 67 75 80 91 103 105
330 326 321 317 314 312 310 307 305 304 303 302 302 299 295 295 296 297 301 299 296 297 299 300 303 303 300 294 292 293 299 315 323 320 323 325 320 315 312 314 315 313 315 317 322 332 334 337 348 357 358 5 16 19 16 17 21 23 29 38 47 48 51 58 61 60 59 57 55 52 47 46 50 49 47 50 55 60 66 74 80 85 92 101 104
331 328 324 322 323 323 322 319 315 312 308 305 303 300 296 294 296 299 299 297 297 297 294 293 297 300 299 294 289 287 293 311 319 315 316 323 326 325 322 319 319 320 319 319 327 335 337 342 352 359 1 8 20 22 18 21 25 27 33 38 42 46 50 56 59 60 61 60 60 58 54 53 61 65 61 60 62 66 72 78 84 90 95 100 102
330 328 326 326 327 327 326 323 320 317 312 307 301 296 295 295 296 298 295 292 294 295 291 289 291 295 298 297 289 282 290 306 313 311 315 324 332 336 334 332 331 334 338 340 343 345 345 352 360 3 5 13 23 23 21 28 32 30 36 42 45 48 52 57 60 62 64 63 63 63 60 56 63 70 69 66 67 68 70 79 88 93 96 101 103
322 321 319 320 320 318 316 314 315 314 309 307 303 295 291 292 293 293 291 288 288 290 289 288 287 289 296 300 290 280 285 299 304 312 321 328 336 341 338 341 353 9 13 5 358 353 354 0 6 9 13 20 25 24 27 37 38 35 42 48 51 55 56 57 61 63 65 65 64 65 65 60 61 67 70 69 73 77 77 80 87 93 98 103 106
308 307 306 306 306 306 305 307 310 309 304 304 305 300 294 294 295 295 293 289 286 284 283 285 284 283 291 300 290 279 282 289 294 314 326 329 335 339 337 346 18 26 14 9 6 0 2 8 12 16 21 26 28 27 33 44 43 41 48 54 58 64 64 60 61 63 64 66 64 64 67 65 62 65 69 69 71 79 87 90 89 92 100 105 108
299 300 300 301 302 303 303 306 309 307 303 303 304 303 299 296 297 298 297 295 292 285 278 282 283 276 283 297 291 280 280 279 286 315 325 326 333 340 342 0 29 20 9 10 9 4 6 14 20 24 29 32 32 33 43 52 50 50 56 60 62 67 69 67 67 67 66 65 65 65 67 68 65 65 68 68 65 69 79 89 92 95 102 107 109
300 301 302 302 303 304 306 309 310 309 306 304 303 303 300 296 295 296 299 301 301 294 281 280 280 271 279 297 293 280 277 271 282 314 321 323 340 353 3 17 27 21 10 12 13 8 10 21 30 32 34 38 38 39 49 56 54 59 66 66 65 68 71 71 70 69 68 66 66 67 67 69 68 65 66 68 66 64 68 77 84 90 95 99 102
305 305 305 305 306 307 309 312 312 311 309 307 306 304 300 295 292 295 300 303 306 302 286 278 277 274 281 295 290 277 271 266 279 308 305 328 360 7 8 7 18 21 14 18 21 11 11 27 38 37 38 42 41 40 52 61 57 63 71 71 69 71 72 73 71 70 71 71 70 70 70 71 71 69 67 67 67 66 65 68 73 77 83 88 93
311 310 310 309 309 310 311 311 310 309 309 310 310 308 301 296 294 296 302 304 308 307 290 279 278 279 286 291 277 268 264 259 266 272 255 342 0 358 353 355 16 23 18 27 31 17 11 29 42 43 46 48 45 44 58 70 66 68 74 76 76 75 74 75 74 72 72 72 72 72 72 72 72 71 70 68 68 68 68 68 70 71 75 80 85
314 313 314 315 315 316 314 314 313 313 313 314 314 310 303 301 302 303 305 306 310 311 296 281 278 278 284 284 267 263 262 253 239 211 219 351 355 356 4 4 20 26 15 23 35 21 9 30 45 51 58 63 62 62 71 78 80 81 82 84 84 81 79 78 76 74 73 72 72 71 69 70 72 71 69 66 65 66 68 68 70 72 75 77 80
319 319 322 324 326 325 323 324 326 325 324 321 316 310 306 305 308 310 310 308 312 315 300 282 274 270 268 261 252 254 252 238 198 168 183 5 7 23 25 12 2 5 7 31 44 24 22 49 59 59 64 72 74 73 78 85 91 92 89 89 89 87 83 79 75 72 72 71 71 70 67 67 71 72 70 67 64 64 64 64 66 72 77 79 82
326 328 330 332 332 330 328 329 330 328 326 321 316 313 310 309 309 311 313 313 317 317 294 278 268 260 256 243 227 232 231 215 180 163 148 69 137 53 33 23 4 355 12 69 63 37 49 65 70 68 67 71 76 75 81 93 95 94 92 91 91 88 84 80 76 71 69 70 71 70 66 65 68 71 71 70 68 66 65 64 65 70 75 80 83
332 333 334 334 333 330 327 326 326 323 321 320 320 317 314 312 313 313 312 313 317 314 283 268 259 264 266 234 194 214 217 205 188 184 191 213 203 152 35 24 11 1 24 75 76 64 70 71 73 74 69 71 79 82 90 99 95 93 94 90 87 86 83 82 79 75 72 71 72 71 68 65 65 67 68 68 68 69 69 69 69 69 70 74 78
334 335 335 333 331 329 327 327 326 322 320 320 321 321 318 315 316 316 312 309 314 316 285 264 261 272 260 198 190 213 208 202 198 199 207 214 193 153 33 13 7 5 29 70 84 84 81 78 79 78 73 74 81 89 101 102 92 92 92 88 86 86 84 83 81 80 78 75 72 72 71 68 66 66 66 65 64 66 69 72 74 75 73 71 72
337 337 336 333 331 328 327 327 326 323 321 321 322 323 320 316 317 318 314 309 314 316 290 262 261 267 239 187 198 209 201 204 208 206 206 200 181 161 19 7 359 4 43 85 98 94 89 89 87 82 78 78 82 92 105 103 90 90 88 85 87 87 86 85 84 83 81 77 76 76 75 72 71 69 69 66 61 60 64 69 74 78 80 77 73
340 339 337 333 330 328 326 325 324 323 323 323 323 323 321 317 316 316 317 324 334 328 300 266 254 255 223 184 205 204 198 205 210 204 204 195 173 166 2 356 345 3 77 112 114 102 94 92 90 86 82 81 85 94 102 100 93 90 84 83 88 90 91 90 87 84 81 76 78 80 79 76 73 72 72 69 62 60 61 64 69 75 81 83 80
337 335 333 331 330 328 325 323 322 322 323 323 322 321 318 314 311 310 320 346 0 348 311 273 253 239 210 191 205 198 191 200 208 205 205 192 162 155 200 327 334 5 108 127 123 108 98 96 96 94 86 85 89 94 97 99 96 87 81 86 90 90 91 90 86 83 81 77 77 80 82 79 73 74 77 71 64 62 62 60 63 69 75 82 86
333 332 331 330 328 325 322 320 318 318 321 323 321 317 312 307 301 297 314 356 10 360 326 288 253 231 215 197 190 188 189 199 206 205 202 191 167 160 172 219 328 22 131 133 127 112 104 104 107 104 94 90 93 95 98 101 95 82 80 86 86 80 80 84 83 82 82 80 79 81 84 82 76 77 77 71 65 63 60 58 62 68 71 75 84
335 334 334 333 330 328 326 323 319 317 316 315 315 312 308 301 292 285 293 337 9 5 343 307 250 227 218 186 174 185 193 198 197 196 194 187 168 158 163 173 336 110 132 129 118 111 113 115 117 113 106 99 96 97 102 100 94 89 84 80 72 65 68 76 81 82 80 77 77 77 81 84 81 77 77 74 69 63 58 62 68 70 70 72 76
338 338 337 336 335 336 337 336 333 330 323 312 305 303 303 301 291 282 282 294 334 5 355 317 247 226 211 175 169 172 173 194 208 197 189 186 166 154 157 166 143 110 121 122 114 117 130 127 125 124 118 110 103 102 105 104 102 104 97 82 66 57 61 67 73 78 78 74 69 66 70 78 78 74 74 76 73 67 65 71 73 72 73 74 72